Location: Quedlinburg
(51.7921°N, 11.1414°E)
Time: 22:29:46
(UTC+02:00)

RS-15 - Pass Details

Date: 12 March 2026
Orbit: 1893 x 2152 km, 64.8° (Epoch: 17 April)

Event Time Altitude Azimuth Distance (km) Brightness Sun altitude
Rises 22:27:33 0° 234° (SW) 5,267 10.3 -35.4°
Reaches altitude 10° 22:30:48 10° 237° (WSW) 4,278 9.8 -35.7°
Maximum altitude 22:41:42 70° 321° (NW) 2,032 8.1 -36.7°
Drops below altitude 10° 22:53:03 10° 45° (NE) 4,435 10.0 -37.6°
Sets 22:56:30 0° 49° (NE) 5,469 10.5 -37.9°
